GW6104 Weather Reports


Display with metric or nautical units.
time (UTC)temp
F
wind
direction
speed
MPH
gust
MPH
rain 1hr
in
rain 24hr
in
rain mn
in
humidity
%
barometer
mb
20260507061529 53 347 4.0 9.0 0.00 0.00 0.00 78 1022.2
20260507060029 53 317 4.0 11.0 0.00 0.00 0.00 78 1022.1
20260507054525 53 328 5.0 11.0 0.00 0.00 0.00 78 1022.1
20260507053025 53 325 6.0 10.0 0.00 0.00 0.00 78 1022.2
20260507051522 53 5 3.0 9.0 0.00 0.00 0.00 79 1022.2
20260507050038 53 309 2.0 9.0 0.00 0.00 0.00 78 1022.2
20260507044513 54 9 4.0 9.0 0.00 0.00 0.00 78 1022.2
20260507043010 54 9 5.0 11.0 0.00 0.00 0.00 77 1022.2
20260507041520 55 351 6.0 15.0 0.00 0.00 0.00 76 1022.0
20260507040011 55 334 5.0 16.0 0.00 0.00 0.00 76 1022.0
20260507034508 55 304 6.0 14.0 0.00 0.00 0.00 75 1021.8
20260507033025 56 343 6.0 18.0 0.00 0.00 0.00 75 1021.7
20260507031520 56 352 5.0 17.0 0.00 0.00 0.00 74 1021.5
20260507030025 57 11 6.0 11.0 0.00 0.00 0.00 75 1021.3
20260507024519 57 325 6.0 12.0 0.00 0.00 0.00 74 1021.1
20260507023008 58 324 7.0 15.0 0.00 0.00 0.00 73 1021.0
20260507021515 59 9 5.0 12.0 0.00 0.00 0.00 73 1021.0
20260507020012 59 9 4.0 12.0 0.00 0.00 0.00 74 1021.1
20260507014514 60 315 2.0 11.0 0.00 0.00 0.00 73 1021.2
20260507013018 60 331 5.0 14.0 0.00 0.00 0.00 72 1021.3
20260507011517 61 5 8.0 13.0 0.00 0.00 0.00 71 1021.3
20260507010015 61 340 7.0 13.0 0.00 0.00 0.00 70 1021.3
20260507004526 62 360 7.0 13.0 0.00 0.00 0.00 71 1021.1
20260507003023 63 360 7.0 12.0 0.00 0.00 0.00 69 1021.0
20260507001520 63 350 4.0 10.0 0.00 0.00 0.00 69 1021.0
20260507000017 63 9 4.0 12.0 0.00 0.00 0.00 67 1021.0
20260506234517 64 333 6.0 10.0 0.00 0.00 0.00 68 1021.0
20260506233022 65 310 5.0 11.0 0.00 0.00 0.00 70 1020.9
20260506231514 65 302 2.0 8.0 0.00 0.00 0.00 69 1021.0
20260506230029 65 333 3.0 7.0 0.00 0.00 0.00 68 1021.0
20260506224532 65 337 3.0 8.0 0.00 0.00 0.00 71 1021.0
20260506223022 64 55 3.0 5.0 0.00 0.00 0.00 72 1021.3
20260506221522 64 63 3.0 7.0 0.00 0.00 0.00 74 1021.3
20260506220023 64 298 0.0 5.0 0.00 0.00 0.00 72 1021.3
20260506214516 63 334 1.0 8.0 0.00 0.00 0.00 73 1021.4
20260506213030 63 71 3.0 7.0 0.00 0.00 0.00 74 1021.4
20260506211530 63 13 2.0 4.0 0.00 0.00 0.00 72 1021.4
20260506210031 62 327 2.0 5.0 0.00 0.00 0.00 76 1021.7
20260506204532 62 41 1.0 4.0 0.00 0.00 0.00 74 1021.7
20260506203023 61 289 1.0 3.0 0.00 0.00 0.00 75 1021.8
20260506201529 61 300 0.0 3.0 0.00 0.00 0.00 74 1021.6
20260506200019 61 32 1.0 3.0 0.00 0.00 0.00 74 1021.6
20260506194519 59 148 1.0 3.0 0.00 0.00 0.00 77 1021.8
20260506193026 59 276 0.0 3.0 0.00 0.00 0.00 80 1021.9
20260506191526 58 311 1.0 3.0 0.00 0.00 0.00 80 1022.1
20260506190030 58 311 1.0 2.0 0.00 0.00 0.00 81 1022.0
20260506184526 58 229 1.0 2.0 0.00 0.00 0.00 80 1021.9
20260506183023 58 250 2.0 3.0 0.00 0.00 0.00 80 1021.8
20260506181526 58 5 0.0 2.0 0.00 0.00 0.00 80 1021.7
20260506180031 58 283 0.0 3.0 0.00 0.00 0.00 79 1021.8
20260506174532 57 209 1.0 2.0 0.00 0.00 0.00 81 1021.7
20260506173029 57 289 1.0 5.0 0.00 0.00 0.00 79 1021.6
20260506171538 57 360 2.0 3.0 0.00 0.00 0.00 79 1021.5
20260506170026 57 319 1.0 3.0 0.00 0.00 0.00 81 1021.6
20260506164505 56 270 2.0 4.0 0.00 0.00 0.00 80 1021.5
20260506163010 55 316 1.0 3.0 0.00 0.00 0.00 81 1021.7
20260506161509 55 311 2.0 5.0 0.00 0.00 0.00 81 1021.6
20260506160005 55 98 0.0 3.0 0.00 0.00 0.00 82 1021.2
20260506154504 55 68 1.0 3.0 0.00 0.00 0.00 81 1020.9
20260506153010 54 20 1.0 7.0 0.00 0.00 0.00 82 1020.7
20260506151507 54 16 2.0 6.0 0.00 0.00 0.00 83 1021.1
20260506150005 54 5 1.0 4.0 0.00 0.00 0.00 84 1021.4
20260506144516 54 24 4.0 9.0 0.00 0.00 0.00 84 1021.3
20260506143012 54 352 2.0 9.0 0.00 0.00 0.00 84 1021.0
20260506141509 54 352 2.0 5.0 0.00 0.00 0.00 85 1020.8
20260506140016 54 315 4.0 6.0 0.00 0.00 0.00 85 1020.5
20260506134504 53 329 3.0 5.0 0.00 0.00 0.00 86 1020.6
20260506133006 53 336 2.0 5.0 0.00 0.00 0.00 86 1020.4
20260506131522 53 326 2.0 4.0 0.00 0.00 0.00 86 1020.3
20260506130022 53 340 1.0 8.0 0.00 0.00 0.00 86 1020.0
20260506124522 53 325 4.0 8.0 0.00 0.00 0.00 86 1020.0
20260506123016 54 17 1.0 2.0 0.00 0.00 0.00 86 1019.8
20260506121512 54 11 1.0 3.0 0.00 0.00 0.00 86 1019.8
20260506120011 54 326 3.0 5.0 0.00 0.00 0.00 85 1019.8
20260506114522 54 295 2.0 5.0 0.00 0.00 0.00 85 1019.7
20260506113024 54 31 3.0 5.0 0.00 0.00 0.00 85 1019.5
20260506111525 54 259 3.0 6.0 0.00 0.00 0.00 85 1019.4
20260506110021 55 274 3.0 6.0 0.00 0.00 0.00 84 1019.3
20260506104516 55 329 2.0 5.0 0.00 0.00 0.00 84 1019.1
20260506103012 55 341 4.0 7.0 0.00 0.00 0.00 84 1019.0
20260506101508 55 340 1.0 5.0 0.00 0.00 0.00 84 1018.9
20260506100020 55 318 2.0 5.0 0.00 0.00 0.00 84 1018.7
20260506094507 55 13 2.0 7.0 0.00 0.00 0.00 83 1018.6
20260506093027 55 325 2.0 5.0 0.00 0.00 0.00 84 1018.5
20260506091521 55 349 3.0 5.0 0.00 0.00 0.00 83 1018.5
20260506090021 55 348 1.0 4.0 0.00 0.00 0.00 83 1018.5
20260506084514 55 360 2.0 4.0 0.00 0.00 0.00 83 1018.5
20260506083020 55 306 3.0 6.0 0.00 0.00 0.00 82 1018.5
20260506081517 55 352 2.0 5.0 0.00 0.00 0.00 82 1018.5
20260506073020 56 336 2.0 7.0 0.00 0.00 0.00 81 1018.1
20260506071515 56 9 2.0 3.0 0.00 0.00 0.00 82 1018.0